WMT7041 EDDF-EHRD

Flight info

Callsign WMT7041
Flight time N/A
Altitude 24000
Route MARUN8M/25C MARUN Y152 ARPEG/N0452F340 Z850 HMM L602 RKN
Aircraft A20N/M-SDE2E3FGHIRWXY/LB1

Departure

Time 2026-05-07 14:52
Airport Frankfurt Main Airport (EDDF)

Arrival

Time N/A
Airport Rotterdam The Hague Airport (EHRD)
Time Latitude Longitude Altitude Speed Heading
2026-05-07 14:29 50.04806 8.58465 353 ft 0 kts 159°
2026-05-07 14:43 50.04811 8.58462 355 ft 2 kts 160°
2026-05-07 14:43 50.04827 8.58453 358 ft 2 kts 160°
2026-05-07 14:43 50.04843 8.58444 354 ft 2 kts 160°
2026-05-07 14:43 50.04857 8.58430 349 ft 2 kts 99°
2026-05-07 14:44 50.04858 8.58420 355 ft 0 kts 73°
2026-05-07 14:44 50.04858 8.58421 355 ft 1 kts 73°
2026-05-07 14:45 50.04862 8.58437 356 ft 3 kts 68°
2026-05-07 14:45 50.04874 8.58474 350 ft 5 kts 63°
2026-05-07 14:45 50.04895 8.58537 353 ft 8 kts 63°
2026-05-07 14:45 50.04909 8.58628 348 ft 10 kts 94°
2026-05-07 14:46 50.04856 8.58701 348 ft 12 kts 161°
2026-05-07 14:46 50.04840 8.58710 348 ft 0 kts 160°
2026-05-07 14:47 50.04829 8.58716 353 ft 3 kts 160°
2026-05-07 14:47 50.04801 8.58731 353 ft 6 kts 160°
2026-05-07 14:48 50.04756 8.58757 349 ft 8 kts 160°
2026-05-07 14:48 50.04706 8.58769 348 ft 0 kts 180°
2026-05-07 14:48 50.04692 8.58769 346 ft 3 kts 181°
2026-05-07 14:49 50.04660 8.58766 346 ft 6 kts 186°
2026-05-07 14:49 50.04610 8.58743 346 ft 9 kts 207°
2026-05-07 14:49 50.04552 8.58679 351 ft 12 kts 218°
2026-05-07 14:49 50.04489 8.58579 351 ft 14 kts 237°
2026-05-07 14:50 50.04479 8.58547 350 ft 0 kts 247°
2026-05-07 14:50 50.04477 8.58541 349 ft 2 kts 247°
2026-05-07 14:51 50.04441 8.58394 346 ft 45 kts 250°
2026-05-07 14:51 50.04288 8.57745 354 ft 102 kts 249°
2026-05-07 14:51 50.04035 8.56682 358 ft 144 kts 249°
2026-05-07 14:51 50.03612 8.55048 628 ft 166 kts 251°
2026-05-07 14:52 50.03216 8.53401 1399 ft 158 kts 250°
2026-05-07 14:52 50.02819 8.51768 1943 ft 164 kts 252°
2026-05-07 14:52 50.02439 8.50082 2529 ft 167 kts 252°
2026-05-07 14:52 50.01758 8.48623 2999 ft 174 kts 208°
2026-05-07 14:53 50.00573 8.48323 3525 ft 176 kts 180°
2026-05-07 14:53 49.99285 8.48240 3937 ft 195 kts 187°
2026-05-07 14:53 49.97880 8.47939 4484 ft 211 kts 192°
2026-05-07 14:53 49.96399 8.47427 5144 ft 225 kts 197°
2026-05-07 14:54 49.94825 8.46647 5624 ft 250 kts 203°
2026-05-07 14:54 49.93154 8.45499 6153 ft 272 kts 208°
2026-05-07 14:54 49.91602 8.43867 7054 ft 273 kts 230°
2026-05-07 14:54 49.90799 8.41218 7789 ft 277 kts 265°
2026-05-07 14:55 49.90931 8.38322 8860 ft 271 kts 286°
2026-05-07 14:55 49.91804 8.35820 10058 ft 263 kts 314°
2026-05-07 14:55 49.93409 8.34269 10556 ft 282 kts 345°
2026-05-07 14:55 49.95424 8.33837 10948 ft 305 kts 355°
2026-05-07 14:56 49.97596 8.33356 11182 ft 327 kts 343°
2026-05-07 14:56 49.97647 8.33334 11187 ft 328 kts 343°
2026-05-07 14:56 49.97781 8.33275 11197 ft 329 kts 342°
2026-05-07 14:57 49.99986 8.31931 11415 ft 348 kts 334°
2026-05-07 14:57 50.02197 8.30271 11978 ft 356 kts 335°
2026-05-07 14:57 50.04514 8.28848 12660 ft 361 kts 338°
2026-05-07 14:57 50.06863 8.27407 13398 ft 364 kts 337°
2026-05-07 14:58 50.09202 8.25954 14086 ft 368 kts 337°
2026-05-07 14:58 50.11587 8.24460 14678 ft 373 kts 337°
2026-05-07 14:58 50.14017 8.22935 15264 ft 377 kts 337°
2026-05-07 14:58 50.16462 8.21404 15868 ft 380 kts 337°
2026-05-07 14:59 50.18931 8.19864 16463 ft 384 kts 337°
2026-05-07 14:59 50.21441 8.18299 17075 ft 388 kts 337°
2026-05-07 14:59 50.23956 8.16729 17658 ft 392 kts 337°
2026-05-07 14:59 50.26505 8.15138 18272 ft 396 kts 337°
2026-05-07 15:00 50.29041 8.13552 18820 ft 399 kts 337°
2026-05-07 15:00 50.31629 8.11930 19385 ft 402 kts 337°
2026-05-07 15:00 50.34233 8.10293 19945 ft 405 kts 337°
2026-05-07 15:00 50.36855 8.08642 20482 ft 408 kts 337°
2026-05-07 15:01 50.39498 8.06976 21013 ft 411 kts 337°
2026-05-07 15:01 50.42162 8.05293 21526 ft 414 kts 337°
2026-05-07 15:01 50.44829 8.03606 22020 ft 417 kts 337°
2026-05-07 15:01 50.47526 8.01903 22519 ft 420 kts 337°
2026-05-07 15:02 50.50250 8.00180 23024 ft 423 kts 337°
2026-05-07 15:02 50.52990 7.98446 23506 ft 425 kts 337°
2026-05-07 15:02 50.55738 7.96707 23902 ft 428 kts 337°
2026-05-07 15:02 50.58512 7.94948 24027 ft 430 kts 337°
2026-05-07 15:03 50.61325 7.93159 24065 ft 442 kts 336°
2026-05-07 15:03 50.64179 7.91343 24035 ft 453 kts 336°
2026-05-07 15:03 50.67151 7.89453 24032 ft 464 kts 336°
2026-05-07 15:03 50.70169 7.87530 24034 ft 468 kts 336°
2026-05-07 15:04 50.73203 7.85594 24036 ft 469 kts 336°
2026-05-07 15:04 50.76238 7.83660 24037 ft 470 kts 336°
2026-05-07 15:04 50.79274 7.81722 24040 ft 470 kts 336°
2026-05-07 15:04 50.82250 7.79813 24039 ft 469 kts 336°
2026-05-07 15:05 50.85287 7.77862 24044 ft 470 kts 336°
2026-05-07 15:05 50.88309 7.75920 24048 ft 470 kts 336°
2026-05-07 15:05 50.91351 7.73959 24053 ft 470 kts 336°
2026-05-07 15:05 50.93352 7.72664 24051 ft 469 kts 336°
2026-05-07 15:06 50.96378 7.70701 24050 ft 469 kts 336°
2026-05-07 15:06 50.99405 7.68741 24048 ft 469 kts 336°
2026-05-07 15:06 51.03417 7.66143 24047 ft 469 kts 336°
2026-05-07 15:06 51.05463 7.64818 24046 ft 469 kts 336°
2026-05-07 15:07 51.08485 7.62858 24047 ft 469 kts 336°
2026-05-07 15:07 51.11512 7.60893 24043 ft 469 kts 336°
2026-05-07 15:07 51.14488 7.58958 24037 ft 469 kts 336°
2026-05-07 15:07 51.17540 7.56965 24037 ft 470 kts 336°
2026-05-07 15:08 51.20542 7.55000 24038 ft 470 kts 336°
2026-05-07 15:08 51.23090 7.52073 24606 ft 450 kts 295°
2026-05-07 15:08 51.23642 7.47211 24966 ft 458 kts 265°
2026-05-07 15:08 51.22851 7.42231 24432 ft 478 kts 247°